Martinsburg, PA

7:12 AM EST on January 20, 2017 (GMT -0500)
Altoona-Blair County

Weather History for KAOO - October, 2013

Change the Weather History Date:

Friday, October 11, 2013

  Actual Average Record
Temperature  
Mean Temperature 53 °F 52 °F  
Max Temperature 57 °F 63 °F 83 °F (1954)
Min Temperature 49 °F 42 °F 25 °F (1993)
Degree Days  
Heating Degree Days 12 13  
Month to date heating degree days 55 124  
Since 1 July heating degree days 224 295  
Cooling Degree Days 0 0  
Month to date cooling degree days 32 0  
Year to date cooling degree days 695 522  
Growing Degree Days 2 (Base 50)    
Moisture  
Dew Point 51 °F    
Average Humidity 95    
Maximum Humidity 100    
Minimum Humidity 89    
Precipitation  
Precipitation 1.83 in 0.08 in 2.08 in (1990)
Month to date precipitation 3.16 0.93  
Year to date precipitation 24.21 25.31  
Sea Level Pressure  
Sea Level Pressure 30.09 in    
Wind  
Wind Speed 5 mph (NE)    
Max Wind Speed 13 mph    
Max Gust Speed 16 mph    
Visibility 4 miles    
Events Rain    
T = Trace of Precipitation, MM = Missing Value Source: NWS Daily Summary

Daily Weather History Graph

Daily Weather History Graph

Search for Another Location

Airport or City:

Trip Planner

Search our weather history database for the weather conditions in past years. The results will help you decide how hot, cold, wet, or windy it might be!

Date:

Astronomy

Oct. 11, 2013 Rise Set
Actual Time 7:20 AM EDT 6:39 PM EDT
Civil Twilight 6:52 AM EDT 7:06 PM EDT
Nautical Twilight 6:21 AM EDT 7:37 PM EDT
Astronomical Twilight 5:49 AM EDT 8:09 PM EDT
Moon 2:00 PM EDT (10/11) No Moon Set
Length of Visible Light 12h 13m
Length of Day
11h 19m
Waxing Crescent, 47% of the Moon is Illuminated
Oct 11
Waxing Crescent
Oct 11
First Quarter
Oct 18
Full
Oct 26
Last Quarter
Nov 3
New

Hourly Weather History & Observations

Time (EDT) Temp. Dew Point Humidity Pressure Visibility Wind Dir Wind Speed Gust Speed Precip Events Conditions
12:43 AM 50.0 °F 48.2 °F 94% 30.10 in 9.0 mi NE 5.8 mph - 0.02 in Rain Light Rain
12:53 AM 50.0 °F 48.9 °F 96% 30.10 in 9.0 mi NE 4.6 mph - 0.02 in Rain Light Rain
1:53 AM 50.0 °F 48.9 °F 96% 30.10 in 3.0 mi ENE 4.6 mph - 0.01 in Rain Light Rain
2:04 AM 50.0 °F 48.2 °F 94% 30.09 in 2.5 mi NE 4.6 mph - 0.00 in Rain Light Rain
2:16 AM 50.0 °F 48.2 °F 94% 30.08 in 3.0 mi NNE 6.9 mph - N/A Rain Rain
2:38 AM 50.0 °F 48.2 °F 94% 30.08 in 2.0 mi NE 5.8 mph - N/A Rain Rain
2:49 AM 50.0 °F 48.2 °F 94% 30.08 in 2.5 mi NNE 6.9 mph - N/A Rain Rain
2:53 AM 50.0 °F 48.9 °F 96% 30.09 in 4.0 mi NNE 5.8 mph - N/A Rain Rain
3:53 AM 50.0 °F 48.9 °F 96% 30.07 in 4.0 mi NE 6.9 mph - N/A Rain Rain
4:33 AM 48.2 °F 48.2 °F 100% 30.06 in 2.5 mi ENE 4.6 mph - N/A Rain Rain
4:49 AM 50.0 °F 48.2 °F 94% 30.07 in 3.0 mi NE 4.6 mph - N/A Rain Heavy Rain
4:50 AM 50.0 °F 48.9 °F 96% 30.08 in 3.0 mi NE 5.8 mph - N/A Rain Heavy Rain
5:22 AM 50.0 °F 48.2 °F 94% 30.07 in 2.5 mi Calm Calm - 0.05 in Rain Heavy Rain
5:33 AM 48.2 °F 48.2 °F 100% 30.07 in 1.8 mi Calm Calm - 0.08 in Rain Heavy Rain
5:35 AM 48.2 °F 48.2 °F 100% 30.07 in 2.0 mi ENE 3.5 mph - 0.08 in Rain Heavy Rain
5:53 AM 48.9 °F 48.9 °F 100% 30.09 in 2.5 mi Calm Calm - 0.13 in Rain Heavy Rain
6:11 AM 48.2 °F 48.2 °F 100% 30.08 in 3.0 mi Calm Calm - 0.05 in Rain Heavy Rain
6:23 AM 48.2 °F 48.2 °F 100% 30.08 in 2.0 mi Calm Calm - 0.10 in Rain Heavy Rain
6:31 AM 48.2 °F 48.2 °F 100% 30.08 in 1.8 mi Calm Calm - 0.14 in Rain Heavy Rain
6:37 AM 48.2 °F 48.2 °F 100% 30.08 in 2.0 mi Variable 3.5 mph - 0.17 in Rain Heavy Rain
6:53 AM 50.0 °F 48.9 °F 96% 30.09 in 1.5 mi Calm Calm - 0.27 in Rain Heavy Rain
7:00 AM 50.0 °F 48.2 °F 94% 30.08 in 3.0 mi Calm Calm - 0.05 in Rain Heavy Rain
7:13 AM 50.0 °F 48.2 °F 94% 30.08 in 2.0 mi Calm Calm - 0.17 in Rain Heavy Rain
7:27 AM 50.0 °F 48.2 °F 94% 30.08 in 3.0 mi NE 4.6 mph - 0.31 in Rain Heavy Rain
7:44 AM 50.0 °F 50.0 °F 100% 30.08 in 4.0 mi NE 6.9 mph - 0.48 in Rain Rain
7:53 AM 50.0 °F 50.0 °F 100% 30.09 in 3.0 mi NNE 8.1 mph - 0.57 in Rain Heavy Rain
8:10 AM 50.0 °F 50.0 °F 100% 30.08 in 4.0 mi NE 9.2 mph - 0.15 in Rain Rain
8:16 AM 50.0 °F 50.0 °F 100% 30.08 in 2.5 mi NNE 10.4 mph - 0.20 in Rain Heavy Rain
8:27 AM 51.8 °F 50.0 °F 94% 30.08 in 2.5 mi NE 9.2 mph - 0.29 in Rain Heavy Rain
8:38 AM 51.8 °F 50.0 °F 94% 30.09 in 3.0 mi NE 5.8 mph - 0.37 in Rain Rain
8:53 AM 51.1 °F 50.0 °F 96% 30.10 in 5.0 mi NNE 8.1 mph - 0.45 in Rain Light Rain
9:53 AM 51.1 °F 48.9 °F 92% 30.11 in 8.0 mi NNE 10.4 mph - 0.05 in Rain Light Rain
10:53 AM 51.1 °F 50.0 °F 96% 30.12 in 10.0 mi NNE 9.2 mph - 0.01 in Rain Light Rain
11:34 AM 51.8 °F 51.8 °F 100% 30.10 in 2.0 mi NE 5.8 mph - 0.01 in Rain Light Rain
11:41 AM 51.8 °F 51.8 °F 100% 30.10 in 1.5 mi NNE 5.8 mph - 0.01 in Rain Light Rain
11:49 AM 51.8 °F 51.8 °F 100% 30.10 in 1.2 mi NNE 6.9 mph - 0.01 in   Overcast
11:53 AM 53.1 °F 52.0 °F 96% 30.11 in 1.5 mi NE 4.6 mph - 0.01 in   Overcast
12:09 PM 53.6 °F 51.8 °F 94% 30.10 in 2.0 mi NE 8.1 mph - 0.00 in Rain Light Rain
12:31 PM 53.6 °F 51.8 °F 94% 30.10 in 1.5 mi NE 6.9 mph - 0.00 in Rain Light Rain
12:53 PM 53.1 °F 52.0 °F 96% 30.10 in 1.2 mi ENE 4.6 mph - 0.00 in Rain Light Rain
1:01 PM 53.6 °F 51.8 °F 94% 30.09 in 0.8 mi ENE 3.5 mph - 0.01 in Rain Light Rain
1:14 PM 53.6 °F 51.8 °F 94% 30.09 in 1.2 mi NE 3.5 mph - 0.01 in Rain Light Rain
1:26 PM 53.6 °F 51.8 °F 94% 30.09 in 3.0 mi NE 8.1 mph - 0.01 in Rain Light Rain
1:40 PM 53.6 °F 53.6 °F 100% 30.08 in 4.0 mi NNE 9.2 mph - 0.01 in Rain Light Rain
1:53 PM 54.0 °F 53.1 °F 97% 30.09 in 5.0 mi NE 5.8 mph - 0.02 in Rain Light Rain
2:53 PM 55.0 °F 54.0 °F 96% 30.07 in 5.0 mi NE 5.8 mph - 0.01 in Rain Rain
3:32 PM 53.6 °F 53.6 °F 100% 30.07 in 4.0 mi ENE 4.6 mph - 0.03 in Rain Light Rain
3:53 PM 54.0 °F 54.0 °F 100% 30.07 in 4.0 mi NE 3.5 mph - 0.05 in Rain Light Rain
4:09 PM 53.6 °F 53.6 °F 100% 30.07 in 4.0 mi ENE 4.6 mph - 0.01 in Rain Light Rain
4:22 PM 53.6 °F 53.6 °F 100% 30.07 in 3.0 mi ENE 4.6 mph - 0.02 in Rain Rain
4:53 PM 54.0 °F 53.1 °F 97% 30.08 in 3.0 mi ENE 3.5 mph - 0.04 in Rain Light Rain
4:59 PM 53.6 °F 53.6 °F 100% 30.07 in 2.5 mi ENE 4.6 mph - 0.00 in Rain Rain
5:11 PM 53.6 °F 53.6 °F 100% 30.07 in 3.0 mi ENE 3.5 mph - 0.01 in Rain Light Rain
5:29 PM 53.6 °F 53.6 °F 100% 30.08 in 2.5 mi ENE 3.5 mph - 0.02 in Rain Light Rain
5:39 PM 53.6 °F 53.6 °F 100% 30.08 in 1.5 mi ENE 4.6 mph - 0.03 in Rain Light Rain
5:53 PM 54.0 °F 53.1 °F 97% 30.09 in 0.8 mi NE 4.6 mph - 0.04 in Rain Rain
6:02 PM 53.6 °F 53.6 °F 100% 30.08 in 1.2 mi ENE 3.5 mph - 0.00 in Rain Light Rain
6:30 PM 53.6 °F 53.6 °F 100% 30.09 in 3.0 mi ENE 3.5 mph - 0.02 in Rain Light Rain
6:53 PM 54.0 °F 53.1 °F 97% 30.11 in 5.0 mi NNE 10.4 mph - 0.03 in   Overcast
7:22 PM 53.6 °F 53.6 °F 100% 30.10 in 7.0 mi NE 6.9 mph - 0.01 in Rain Light Rain
7:53 PM 54.0 °F 53.1 °F 97% 30.11 in 10.0 mi ENE 4.6 mph - 0.01 in   Overcast
8:06 PM 53.6 °F 53.6 °F 100% 30.10 in 10.0 mi Calm Calm - N/A   Overcast
8:53 PM 54.0 °F 53.1 °F 97% 30.11 in 10.0 mi Calm Calm - N/A   Overcast
9:53 PM 55.0 °F 53.1 °F 93% 30.12 in 10.0 mi NE 3.5 mph - N/A   Overcast
10:53 PM 55.0 °F 53.1 °F 93% 30.12 in 10.0 mi North 5.8 mph - 0.00 in   Overcast
11:34 PM 55.4 °F 53.6 °F 94% 30.10 in 10.0 mi NNE 5.8 mph - 0.00 in   Overcast
11:53 PM 55.9 °F 53.1 °F 90% 30.11 in 10.0 mi East 3.5 mph - 0.00 in   Overcast